Pontiac, IL

12:30 AM CDT on June 25, 2017 (GMT -0500)
Pontiac Municipal

Weather History for KPNT - December, 2013

Change the Weather History Date:

Wednesday, December 18, 2013

  Actual Average Record
Temperature  
Mean Temperature 24 °F -  
Max Temperature 39 °F 33 °F 61 °F (1962)
Min Temperature 10 °F 18 °F -11 °F (1985)
Degree Days  
Heating Degree Days 40    
Moisture  
Dew Point 19 °F    
Average Humidity 75    
Maximum Humidity 86    
Minimum Humidity 60    
Precipitation  
Precipitation 0.06 in - - ()
Sea Level Pressure  
Sea Level Pressure 30.04 in    
Wind  
Wind Speed 14 mph (SSW)    
Max Wind Speed 25 mph    
Max Gust Speed 33 mph    
Visibility 10 miles    
Events      
Averages and records for this station are not official NWS values.
T = Trace of Precipitation, MM = Missing Value Source: NWS Daily Summary

Daily Weather History Graph

Daily Weather History Graph

Search for Another Location

Airport or City:

Trip Planner

Search our weather history database for the weather conditions in past years. The results will help you decide how hot, cold, wet, or windy it might be!

Date:

Astronomy

Dec. 18, 2013 Rise Set
Actual Time 7:14 AM CST 4:28 PM CST
Civil Twilight 6:43 AM CST 4:59 PM CST
Nautical Twilight 6:08 AM CST 5:34 PM CST
Astronomical Twilight 5:35 AM CST 6:07 PM CST
Moon 6:00 PM CST (12/18) 7:53 AM CST (12/18)
Length of Visible Light 10h 16m
Length of Day
9h 14m
Full, 98% of the Moon is Illuminated
Dec 18
Full
Dec 25
Last Quarter
Jan 1
New
Jan 7
First Quarter
Jan 15
Full

Hourly Weather History & Observations

Time (CST) Temp. Windchill Dew Point Humidity Pressure Visibility Wind Dir Wind Speed Gust Speed Precip Events Conditions
12:15 AM 19.4 °F 5.0 °F 14.0 °F 80% 30.15 in 10.0 mi West 16.1 mph - N/A   Clear
12:35 AM 19.4 °F 4.5 °F 14.0 °F 80% 30.15 in 10.0 mi West 17.3 mph - N/A   Clear
12:55 AM 19.4 °F 5.5 °F 14.0 °F 80% 30.16 in 10.0 mi West 15.0 mph - N/A   Clear
1:15 AM 19.4 °F 6.0 °F 14.0 °F 80% 30.15 in 10.0 mi West 13.8 mph - N/A   Clear
1:35 AM 19.4 °F 6.0 °F 14.0 °F 80% 30.16 in 10.0 mi West 13.8 mph - N/A   Clear
1:55 AM 19.4 °F 6.0 °F 14.0 °F 80% 30.16 in 10.0 mi West 13.8 mph - N/A   Clear
2:15 AM 17.6 °F 5.0 °F 12.2 °F 79% 30.16 in 10.0 mi West 11.5 mph - N/A   Clear
2:35 AM 15.8 °F 2.7 °F 10.4 °F 79% 30.17 in 10.0 mi West 11.5 mph - N/A   Clear
2:55 AM 15.8 °F 3.4 °F 10.4 °F 79% 30.17 in 10.0 mi West 10.4 mph - N/A   Clear
3:15 AM 15.8 °F 3.4 °F 10.4 °F 79% 30.17 in 10.0 mi West 10.4 mph - N/A   Clear
3:35 AM 15.8 °F 2.7 °F 10.4 °F 79% 30.18 in 10.0 mi West 11.5 mph - N/A   Clear
3:55 AM 15.8 °F 3.4 °F 10.4 °F 79% 30.18 in 10.0 mi West 10.4 mph - N/A   Clear
4:15 AM 15.8 °F 4.2 °F 10.4 °F 79% 30.18 in 10.0 mi West 9.2 mph - N/A   Clear
4:35 AM 12.2 °F 4.3 °F 8.6 °F 85% 30.18 in 10.0 mi West 4.6 mph - N/A   Clear
4:55 AM 12.2 °F 1.7 °F 8.6 °F 85% 30.18 in 10.0 mi WSW 6.9 mph - N/A   Clear
5:15 AM 12.2 °F 1.7 °F 8.6 °F 85% 30.18 in 10.0 mi WSW 6.9 mph - N/A   Clear
5:35 AM 12.2 °F 2.9 °F 8.6 °F 85% 30.18 in 10.0 mi WSW 5.8 mph - N/A   Clear
5:55 AM 12.2 °F 2.9 °F 8.6 °F 85% 30.18 in 10.0 mi WSW 5.8 mph - N/A   Clear
6:15 AM 12.2 °F 2.9 °F 8.6 °F 85% 30.17 in 10.0 mi WSW 5.8 mph - N/A   Clear
6:35 AM 12.2 °F 1.7 °F 8.6 °F 85% 30.19 in 10.0 mi WSW 6.9 mph - N/A   Clear
6:55 AM 12.2 °F 2.9 °F 8.6 °F 85% 30.19 in 10.0 mi WSW 5.8 mph - N/A   Clear
7:15 AM 12.2 °F 4.3 °F 8.6 °F 85% 30.19 in 10.0 mi SW 4.6 mph - N/A   Clear
7:35 AM 14.0 °F 8.2 °F 10.4 °F 86% 30.18 in 10.0 mi SW 3.5 mph - N/A   Clear
7:55 AM 10.4 °F 4.0 °F 6.8 °F 85% 30.18 in 10.0 mi South 3.5 mph - N/A   Clear
8:15 AM 10.4 °F 4.0 °F 6.8 °F 85% 30.18 in 10.0 mi SSW 3.5 mph - N/A   Clear
8:35 AM 15.8 °F 6.1 °F 10.4 °F 79% 30.19 in 10.0 mi SSW 6.9 mph - N/A   Clear
8:55 AM 17.6 °F 9.3 °F 10.4 °F 73% 30.19 in 10.0 mi SSW 5.8 mph - N/A   Clear
9:15 AM 19.4 °F 11.5 °F 12.2 °F 74% 30.18 in 10.0 mi SSW 5.8 mph - N/A   Clear
9:35 AM 21.2 °F 11.7 °F 14.0 °F 74% 30.17 in 10.0 mi SSW 8.1 mph - N/A   Clear
9:55 AM 23.0 °F 13.1 °F 14.0 °F 68% 30.17 in 10.0 mi South 9.2 mph - N/A   Clear
10:15 AM 24.8 °F 16.1 °F 14.0 °F 64% 30.17 in 10.0 mi South 8.1 mph - N/A   Clear
10:35 AM 24.8 °F 15.3 °F 15.8 °F 69% 30.16 in 10.0 mi South 9.2 mph - N/A   Clear
10:55 AM 26.6 °F 16.8 °F 15.8 °F 64% 30.14 in 10.0 mi South 10.4 mph - N/A   Clear
11:15 AM 26.6 °F 15.7 °F 17.6 °F 69% 30.13 in 10.0 mi South 12.7 mph - N/A   Clear
11:35 AM 28.4 °F 18.0 °F 17.6 °F 64% 30.11 in 10.0 mi South 12.7 mph - N/A   Clear
11:55 AM 28.4 °F 17.0 °F 17.6 °F 64% 30.10 in 10.0 mi South 15.0 mph - N/A   Clear
12:15 PM 28.4 °F 17.0 °F 17.6 °F 64% 30.08 in 10.0 mi South 15.0 mph - N/A   Clear
12:35 PM 28.4 °F 16.6 °F 17.6 °F 64% 30.06 in 10.0 mi South 16.1 mph - N/A   Clear
12:55 PM 30.2 °F 17.8 °F 17.6 °F 60% 30.03 in 10.0 mi South 19.6 mph 24.2 mph N/A   Clear
1:15 PM 30.2 °F 17.4 °F 17.6 °F 60% 30.01 in 10.0 mi South 20.7 mph 25.3 mph N/A   Clear
1:35 PM 30.2 °F 16.8 °F 17.6 °F 60% 29.98 in 10.0 mi South 23.0 mph - N/A   Clear
1:55 PM 32.0 °F 19.8 °F 19.4 °F 60% 29.96 in 10.0 mi SSE 20.7 mph 26.5 mph N/A   Clear
2:15 PM 30.2 °F 17.4 °F 19.4 °F 64% 29.95 in 10.0 mi SSE 20.7 mph - N/A   Clear
2:35 PM 30.2 °F 16.8 °F 19.4 °F 64% 29.93 in 10.0 mi South 23.0 mph 29.9 mph N/A   Clear
2:55 PM 30.2 °F 16.2 °F 21.2 °F 69% 29.93 in 7.0 mi South 25.3 mph 31.1 mph N/A   Clear
3:15 PM 30.2 °F 17.1 °F 23.0 °F 75% 29.92 in 7.0 mi South 21.9 mph - N/A   Clear
3:35 PM 30.2 °F 17.8 °F 23.0 °F 75% 29.92 in 10.0 mi South 19.6 mph 28.8 mph N/A   Clear
3:55 PM 30.2 °F 17.1 °F 24.8 °F 80% 29.91 in 10.0 mi South 21.9 mph 29.9 mph N/A   Clear
4:15 PM 30.2 °F 17.1 °F 24.8 °F 80% 29.90 in 7.0 mi South 21.9 mph 33.4 mph N/A   Clear
4:35 PM 30.2 °F 16.5 °F 24.8 °F 80% 29.89 in 10.0 mi South 24.2 mph - N/A   Clear
4:55 PM 32.0 °F 20.1 °F 24.8 °F 75% 29.88 in 10.0 mi South 19.6 mph - N/A   Clear
5:15 PM 33.8 °F 21.6 °F 24.8 °F 70% 29.88 in 10.0 mi South 23.0 mph 31.1 mph N/A   Clear
5:35 PM 33.8 °F 21.3 °F 26.6 °F 75% 29.87 in 10.0 mi South 24.2 mph 31.1 mph N/A   Clear
5:55 PM 33.8 °F 21.0 °F 26.6 °F 75% 29.86 in 10.0 mi South 25.3 mph 31.1 mph N/A   Clear
6:15 PM 33.8 °F 22.5 °F 26.6 °F 75% 29.87 in 10.0 mi SSW 19.6 mph 26.5 mph N/A   Clear
6:35 PM 33.8 °F 22.8 °F 26.6 °F 75% 29.88 in 10.0 mi South 18.4 mph 24.2 mph N/A   Clear
6:55 PM 33.8 °F 23.5 °F 26.6 °F 75% 29.88 in 10.0 mi SSW 16.1 mph 21.9 mph N/A   Clear
7:15 PM 35.6 °F 26.2 °F 26.6 °F 70% 29.88 in 10.0 mi SSW 15.0 mph 20.7 mph N/A   Clear
7:35 PM 35.6 °F 26.6 °F 26.6 °F 70% 29.88 in 10.0 mi SSW 13.8 mph - N/A   Clear
7:55 PM 37.4 °F 28.5 °F 28.4 °F 70% 29.88 in 10.0 mi SSW 15.0 mph - N/A   Clear
8:15 PM 37.4 °F 29.3 °F 28.4 °F 70% 29.88 in 10.0 mi SSW 12.7 mph 19.6 mph N/A   Clear
8:35 PM 37.4 °F 28.2 °F 30.2 °F 75% 29.87 in 10.0 mi SSW 16.1 mph 20.7 mph N/A   Clear
8:55 PM 39.2 °F 29.3 °F 30.2 °F 70% 29.87 in 10.0 mi SSW 20.7 mph 25.3 mph N/A   Clear
9:15 PM 39.2 °F 29.0 °F 30.2 °F 70% 29.87 in 10.0 mi SSW 21.9 mph 26.5 mph 0.01 in   Clear
9:35 PM 39.2 °F 29.6 °F 30.2 °F 70% 29.87 in 10.0 mi SSW 19.6 mph - 0.01 in   Clear
9:55 PM 39.2 °F 30.2 °F 30.2 °F 70% 29.87 in 10.0 mi SSW 17.3 mph - 0.02 in   Clear
10:15 PM 39.2 °F 29.6 °F 32.0 °F 75% 29.86 in 10.0 mi SSW 19.6 mph 25.3 mph 0.01 in   Clear
10:35 PM 39.2 °F 30.2 °F 32.0 °F 75% 29.87 in 10.0 mi SSW 17.3 mph - 0.02 in   Clear
10:55 PM 39.2 °F 29.8 °F 32.0 °F 75% 29.87 in 10.0 mi SSW 18.4 mph 24.2 mph 0.03 in   Clear
11:15 PM 39.2 °F 29.6 °F 32.0 °F 75% 29.86 in 10.0 mi SSW 19.6 mph 25.3 mph N/A   Clear
11:35 PM 39.2 °F 29.6 °F 33.8 °F 81% 29.86 in 10.0 mi SSW 19.6 mph 26.5 mph 0.01 in   Clear
11:55 PM 39.2 °F 29.6 °F 33.8 °F 81% 29.85 in 10.0 mi SSW 19.6 mph 25.3 mph 0.01 in   Clear